TimePDT,TemperatureF,Dew PointF,Humidity,Sea Level PressureIn,VisibilityMPH,Wind Direction,Wind SpeedMPH,Gust SpeedMPH,PrecipitationIn,Events,Conditions,WindDirDegrees,DateUTC
12:53 AM,78.1,62.1,58,29.92,10.0,South,5.8,-,N/A,,Clear,190,2013-09-01 07:53:00
1:53 AM,77.0,61.0,58,29.91,10.0,SSW,5.8,-,N/A,,Clear,210,2013-09-01 08:53:00
2:53 AM,77.0,61.0,58,29.90,10.0,Calm,Calm,-,N/A,,Clear,0,2013-09-01 09:53:00
3:53 AM,75.9,60.1,58,29.90,10.0,Calm,Calm,-,N/A,,Clear,0,2013-09-01 10:53:00
4:53 AM,75.9,61.0,60,29.90,10.0,Calm,Calm,-,N/A,,Clear,0,2013-09-01 11:53:00
5:53 AM,75.9,60.1,58,29.91,10.0,Calm,Calm,-,N/A,,Mostly Cloudy,0,2013-09-01 12:53:00
6:53 AM,75.9,61.0,60,29.91,10.0,Calm,Calm,-,N/A,,Mostly Cloudy,0,2013-09-01 13:53:00
7:04 AM,77.0,60.8,57,29.92,10.0,Calm,Calm,-,N/A,,Partly Cloudy,0,2013-09-01 14:04:00
7:53 AM,78.1,63.0,60,29.91,10.0,Calm,Calm,-,N/A,,Mostly Cloudy,0,2013-09-01 14:53:00
8:53 AM,81.0,64.0,56,29.93,10.0,South,3.5,-,N/A,,Mostly Cloudy,190,2013-09-01 15:53:00
9:53 AM,84.0,64.9,53,29.92,10.0,Variable,4.6,-,N/A,,Mostly Cloudy,0,2013-09-01 16:53:00
10:53 AM,89.1,66.0,46,29.91,10.0,WSW,4.6,-,N/A,,Scattered Clouds,250,2013-09-01 17:53:00
11:53 AM,89.1,66.0,46,29.90,10.0,SW,9.2,-,N/A,,Scattered Clouds,230,2013-09-01 18:53:00
12:53 PM,89.1,66.0,46,29.90,10.0,SW,9.2,-,N/A,,Scattered Clouds,230,2013-09-01 19:53:00
1:53 PM,88.0,66.9,49,29.89,10.0,WSW,8.1,-,N/A,,Mostly Cloudy,250,2013-09-01 20:53:00
2:53 PM,89.1,68.0,50,29.86,10.0,WSW,9.2,-,N/A,,Mostly Cloudy,240,2013-09-01 21:53:00
3:53 PM,89.1,68.0,50,29.85,10.0,WSW,8.1,-,N/A,,Scattered Clouds,240,2013-09-01 22:53:00
4:53 PM,87.1,66.9,51,29.84,10.0,West,9.2,-,N/A,,Mostly Cloudy,260,2013-09-01 23:53:00
5:53 PM,84.9,66.0,53,29.84,10.0,West,8.1,-,N/A,,Mostly Cloudy,260,2013-09-02 00:53:00
6:53 PM,81.0,66.0,60,29.86,10.0,WSW,8.1,-,N/A,,Mostly Cloudy,250,2013-09-02 01:53:00
7:53 PM,78.1,66.0,66,29.86,10.0,WSW,4.6,-,N/A,,Mostly Cloudy,240,2013-09-02 02:53:00
8:53 PM,77.0,66.0,69,29.88,10.0,WSW,3.5,-,N/A,,Scattered Clouds,240,2013-09-02 03:53:00
9:53 PM,75.0,66.0,73,29.89,10.0,SW,5.8,-,N/A,,Scattered Clouds,220,2013-09-02 04:53:00
10:53 PM,75.9,64.9,69,29.90,10.0,SW,3.5,-,N/A,,Scattered Clouds,230,2013-09-02 05:53:00
11:53 PM,75.0,64.9,71,29.89,10.0,Calm,Calm,-,N/A,,Clear,0,2013-09-02 06:53:00